sat.trackr.live / text

‹ back to catalog

STARLINK-34796

NORAD 65205 · 2025-176H

PAYLOAD ACTIVE UNKNOWN

§ Identity

Operator
Country
US
Launch date
2025-08-14
Launch site
AFETR
Launch vehicle
Mass (kg)
RCS (m²)

Purposes: comms

External: N2YO · Heavens-Above · Gunter

§ Orbital elements

Epoch: 2026-09-20T21:20:40.952832Z

Period
93.85 min
Inclination
53.1613°
Eccentricity
0.0001241
Mean motion
15.34394534 rev/d
Perigee alt
461.9 km
Apogee alt
463.6 km
Semi-major
6,840.9 km
B*
3.8326e-4
RAAN
321.9868°
Arg perigee
83.8060°
Mean anomaly
276.3084°
Rev number
6,306

§ Raw data

STARLINK-347961 65205U 25176H   26263.88936288  .00012592  00000+0  38326-3 0  99932 65205  53.1613 321.9868 0001241  83.8060 276.3084 15.34394534 63065

JSON: /api/v1/satellites/65205 · /tle

For live sub-satellite position, see the globe view (requires WebGL).

§ Visibility from observer

Set your observer location to see the next 7 days of passes ≥ 10°. The values pass through the URL so the page stays shareable.

No JS? Fill the form by hand. The geolocation button needs JavaScript.